Lid_Strength_Index
8 8 9 8 8 9 9 10 10 7 7 8 7 7 6 5 5 5 5 5 4 4 2 2 2 1 1 1 1 1 0 0 -0 0 1 1 1 0 -0 -1 -1 -1 0 2
9 9 7 8 9 9 9 10 9 7 7 7 7 7 6 5 5 5 5 4 4 4 3 2 2 1 1 1 1 1 1 0 0 0 0 -0 0 -0 -0 -1 -1 -1 0 1
9 9 9 9 9 9 9 9 9 9 8 7 7 8 7 6 5 5 4 4 4 4 4 3 3 2 1 1 1 1 1 0 0 -0 -0 -0 -0 0 1 0 0 -0 1 2
9 8 9 9 9 8 9 8 8 9 9 10 7 11 8 7 6 6 5 4 4 3 3 3 2 2 2 2 1 1 1 0 0 -0 0 1 2 2 1 1 0 1 2 2
9 9 9 9 8 7 8 8 8 9 9 9 9 10 8 7 7 6 5 4 4 3 3 3 3 2 2 1 1 1 0 1 0 0 0 1 1 1 1 1 0 1 2 1
8 7 8 7 7 7 7 8 8 9 9 11 9 10 9 8 7 6 5 4 4 3 3 2 2 2 2 1 1 1 1 1 1 1 1 1 1 1 2 1 2 2 2 0
8 8 7 7 8 8 8 8 11 12 12 12 10 11 9 6 6 6 5 5 4 3 4 3 3 3 2 2 1 1 1 2 1 1 1 1 1 1 1 1 2 4 3 3
10 11 8 7 7 8 8 8 11 14 14 12 11 11 9 6 6 6 5 4 4 4 3 3 3 2 2 2 1 1 1 2 1 1 1 1 1 1 1 1 1 1 4 2
10 10 7 7 6 6 8 9 8 11 12 12 10 9 7 6 6 6 6 5 5 5 4 4 3 3 2 2 1 1 1 1 1 1 1 1 1 1 1 1 1 1 1 2
8 10 8 6 6 7 7 7 10 10 14 14 11 11 10 7 8 7 7 6 6 5 4 4 3 3 2 2 1 1 1 1 1 1 1 1 1 1 1 0 1 1 1 1
8 9 9 7 8 8 8 8 10 10 10 13 13 11 7 8 8 8 7 6 5 5 4 4 3 3 2 2 2 2 1 1 1 1 1 1 1 1 1 1 1 0 0 0
8 9 11 10 7 7 7 8 9 11 12 11 11 11 7 7 7 7 7 6 5 4 4 3 3 3 3 2 2 2 2 1 1 1 1 1 1 1 1 1 1 0 0 0
8 10 12 11 9 8 10 9 9 10 10 12 13 11 7 7 7 6 6 5 5 4 4 3 3 3 3 3 2 2 2 2 1 1 1 1 1 1 1 1 1 0 1 1
6 10 11 13 11 10 11 10 9 10 12 11 11 10 8 8 8 7 6 5 5 4 4 4 3 3 3 2 2 2 2 1 1 1 1 2 1 1 1 1 1 1 1 1
8 11 10 10 10 9 10 10 10 10 10 12 10 10 8 8 7 7 6 5 6 6 5 4 4 3 3 3 2 2 2 1 1 1 2 2 1 1 1 1 1 1 1 0
9 12 10 13 11 11 13 12 11 11 11 11 10 10 8 7 7 7 6 7 7 7 6 6 5 4 3 3 2 2 2 2 1 2 2 1 1 1 1 1 1 1 1 1
10 11 12 15 12 12 15 12 11 10 10 11 13 10 7 8 7 7 6 6 6 6 6 6 6 5 4 3 2 2 2 1 2 2 2 2 1 2 2 1 1 1 1 1
10 10 11 14 12 17 11 8 8 10 9 8 8 8 7 7 6 6 5 5 5 5 5 5 5 5 4 3 3 2 2 2 2 2 2 2 1 2 2 2 2 2 2 2
9 10 12 14 14 13 11 10 10 11 11 10 10 9 7 7 8 7 4 5 6 5 4 4 4 3 3 4 4 2 2 2 2 2 2 2 2 2 2 3 3 2 2 3
9 9 11 13 16 18 11 10 9 9 12 10 10 9 8 8 12 9 6 6 6 5 4 4 3 3 3 2 2 3 2 2 3 2 2 2 2 2 2 2 3 4 3 3
12 12 13 14 15 13 11 10 9 13 12 9 9 8 9 10 9 7 5 5 4 5 4 3 3 3 2 2 2 3 3 3 2 2 1 1 1 2 2 2 2 3 4 4
13 14 13 12 14 16 9 10 13 10 9 8 7 6 6 6 5 5 4 4 3 3 2 2 2 2 2 1 2 3 3 2 2 2 2 2 1 1 2 2 2 4 5 7
14 12 12 12 12 8 9 9 8 8 8 6 6 5 5 5 5 4 4 3 3 3 3 2 2 2 2 1 2 3 2 1 2 2 2 2 1 1 2 2 3 6 7 7
11 10 12 12 10 10 8 7 7 6 6 5 5 5 4 5 5 5 4 4 4 3 3 2 2 3 2 2 1 1 1 1 2 2 2 2 2 2 2 2 4 5 6 6
11 11 12 11 10 8 7 6 6 5 4 4 4 4 5 5 5 5 5 5 4 3 3 3 3 3 2 2 1 1 1 1 2 2 2 2 2 2 5 8 7 6 6 7
10 11 12 11 8 8 7 5 4 5 5 4 5 6 5 5 5 5 5 5 5 4 3 3 3 2 2 2 2 1 1 1 2 3 3 3 3 3 2 4 8 12 11 11